| time (UTC) | temp C | wind direction | speed KPH | gust KPH | rain 1hr cm | rain 24hr cm | rain mn cm | humidity % | barometer mb |
| 20260507191541 | 11 | 302 | 12.9 | 32.2 | 0.00 | 0.00 | 0.00 | 44 | 1011.7 |
| 20260507190049 | 11 | 258 | 8.0 | 24.1 | 0.00 | 0.00 | 0.00 | 48 | 1011.6 |
| 20260507184540 | 11 | 316 | 11.3 | 24.1 | 0.00 | 0.00 | 0.00 | 46 | 1011.6 |
| 20260507183044 | 11 | 309 | 11.3 | 22.5 | 0.00 | 0.00 | 0.00 | 47 | 1011.8 |
| 20260507181537 | 11 | 265 | 9.7 | 20.9 | 0.00 | 0.00 | 0.00 | 46 | 1012.0 |
| 20260507180039 | 11 | 292 | 14.5 | 22.5 | 0.00 | 0.00 | 0.00 | 47 | 1011.9 |
| 20260507174553 | 11 | 7 | 8.0 | 19.3 | 0.00 | 0.00 | 0.00 | 47 | 1012.3 |
| 20260507173054 | 10 | 264 | 12.9 | 33.8 | 0.00 | 0.00 | 0.00 | 48 | 1012.4 |
| 20260507171545 | 10 | 233 | 14.5 | 27.4 | 0.00 | 0.00 | 0.00 | 47 | 1012.6 |
| 20260507170039 | 10 | 278 | 11.3 | 20.9 | 0.00 | 0.00 | 0.00 | 48 | 1012.8 |
| 20260507164547 | 10 | 276 | 11.3 | 30.6 | 0.00 | 0.00 | 0.00 | 51 | 1012.8 |
| 20260507163033 | 10 | 274 | 11.3 | 22.5 | 0.00 | 0.00 | 0.00 | 52 | 1012.7 |
| 20260507161556 | 10 | 309 | 12.9 | 24.1 | 0.00 | 0.00 | 0.00 | 50 | 1012.8 |
| 20260507160041 | 10 | 249 | 14.5 | 24.1 | 0.00 | 0.00 | 0.00 | 50 | 1013.0 |
| 20260507154542 | 10 | 296 | 9.7 | 25.7 | 0.00 | 0.00 | 0.00 | 51 | 1013.0 |
| 20260507153040 | 10 | 335 | 11.3 | 19.3 | 0.00 | 0.00 | 0.00 | 52 | 1012.8 |
| 20260507151536 | 10 | 295 | 11.3 | 20.9 | 0.00 | 0.00 | 0.00 | 54 | 1012.8 |
| 20260507150035 | 10 | 262 | 12.9 | 27.4 | 0.00 | 0.00 | 0.00 | 56 | 1012.7 |
| 20260507144534 | 9 | 312 | 9.7 | 22.5 | 0.00 | 0.00 | 0.00 | 54 | 1012.7 |
| 20260507143043 | 10 | 294 | 8.0 | 17.7 | 0.00 | 0.00 | 0.00 | 55 | 1012.9 |
| 20260507141541 | 10 | 266 | 6.4 | 11.3 | 0.00 | 0.00 | 0.00 | 56 | 1012.8 |
| 20260507140039 | 10 | 287 | 3.2 | 9.7 | 0.00 | 0.00 | 0.00 | 56 | 1012.8 |
| 20260507134536 | 9 | 320 | 4.8 | 12.9 | 0.00 | 0.00 | 0.00 | 58 | 1012.9 |
| 20260507133043 | 9 | 304 | 4.8 | 11.3 | 0.00 | 0.00 | 0.00 | 57 | 1013.0 |
| 20260507131541 | 8 | 211 | 3.2 | 9.7 | 0.00 | 0.00 | 0.00 | 59 | 1013.2 |
| 20260507130039 | 7 | 238 | 4.8 | 11.3 | 0.00 | 0.00 | 0.00 | 62 | 1013.1 |
| 20260507124540 | 7 | 276 | 1.6 | 8.0 | 0.00 | 0.00 | 0.00 | 63 | 1013.1 |
| 20260507123040 | 7 | 343 | 3.2 | 6.4 | 0.00 | 0.00 | 0.00 | 63 | 1013.0 |
| 20260507121541 | 6 | 307 | 1.6 | 4.8 | 0.00 | 0.00 | 0.00 | 67 | 1013.0 |
| 20260507120042 | 6 | 277 | 3.2 | 6.4 | 0.00 | 0.00 | 0.00 | 71 | 1013.0 |
| 20260507114535 | 5 | 257 | 0.0 | 3.2 | 0.00 | 0.00 | 0.00 | 76 | 1012.8 |
| 20260507113047 | 3 | 274 | 0.0 | 1.6 | 0.00 | 0.00 | 0.00 | 80 | 1012.7 |
| 20260507111538 | 2 | 0 | 0.0 | 0.0 | 0.00 | 0.00 | 0.00 | 83 | 1012.7 |
| 20260507110038 | 1 | 0 | 0.0 | 1.6 | 0.00 | 0.00 | 0.00 | 86 | 1012.6 |
| 20260507104536 | 1 | 0 | 0.0 | 0.0 | 0.00 | 0.00 | 0.00 | 86 | 1012.3 |
| 20260507103033 | 1 | 0 | 0.0 | 0.0 | 0.00 | 0.00 | 0.00 | 83 | 1012.3 |
| 20260507101532 | 2 | 0 | 0.0 | 0.0 | 0.00 | 0.00 | 0.00 | 82 | 1012.2 |
| 20260507100037 | 2 | 0 | 0.0 | 0.0 | 0.00 | 0.00 | 0.00 | 80 | 1012.1 |
| 20260507094544 | 2 | 0 | 0.0 | 0.0 | 0.00 | 0.00 | 0.00 | 79 | 1012.1 |
| 20260507093037 | 3 | 0 | 0.0 | 0.0 | 0.00 | 0.00 | 0.00 | 79 | 1012.2 |
| 20260507091536 | 3 | 0 | 0.0 | 0.0 | 0.00 | 0.00 | 0.00 | 77 | 1012.4 |
| 20260507090036 | 4 | 0 | 0.0 | 0.0 | 0.00 | 0.00 | 0.00 | 77 | 1012.3 |
| 20260507084534 | 5 | 0 | 0.0 | 0.0 | 0.00 | 0.00 | 0.00 | 75 | 1012.4 |
| 20260507083034 | 5 | 0 | 0.0 | 1.6 | 0.00 | 0.00 | 0.00 | 73 | 1012.5 |
| 20260507081545 | 5 | 0 | 0.0 | 1.6 | 0.00 | 0.00 | 0.00 | 74 | 1012.5 |
| 20260507080038 | 5 | 0 | 0.0 | 1.6 | 0.00 | 0.00 | 0.00 | 73 | 1012.4 |
| 20260507074535 | 5 | 0 | 0.0 | 1.6 | 0.00 | 0.00 | 0.00 | 73 | 1012.5 |
| 20260507073035 | 6 | 0 | 0.0 | 1.6 | 0.00 | 0.00 | 0.00 | 72 | 1012.4 |
| 20260507071535 | 5 | 0 | 0.0 | 1.6 | 0.00 | 0.00 | 0.00 | 72 | 1012.5 |
| 20260507070040 | 5 | 0 | 0.0 | 1.6 | 0.00 | 0.00 | 0.00 | 72 | 1012.5 |
| 20260507064542 | 5 | 0 | 0.0 | 0.0 | 0.00 | 0.00 | 0.00 | 71 | 1012.8 |
| 20260507063042 | 5 | 0 | 0.0 | 1.6 | 0.00 | 0.00 | 0.00 | 73 | 1012.5 |
| 20260507061538 | 6 | 0 | 0.0 | 0.0 | 0.00 | 0.00 | 0.00 | 73 | 1012.7 |
| 20260507060040 | 6 | 0 | 0.0 | 1.6 | 0.00 | 0.00 | 0.00 | 70 | 1012.7 |
| 20260507054537 | 6 | 0 | 0.0 | 1.6 | 0.00 | 0.00 | 0.00 | 68 | 1012.7 |
| 20260507053037 | 6 | 0 | 0.0 | 1.6 | 0.00 | 0.00 | 0.00 | 69 | 1012.8 |
| 20260507051535 | 6 | 0 | 0.0 | 1.6 | 0.00 | 0.00 | 0.00 | 69 | 1012.9 |
| 20260507050036 | 6 | 259 | 0.0 | 3.2 | 0.00 | 0.00 | 0.00 | 68 | 1012.9 |
| 20260507044541 | 6 | 0 | 0.0 | 1.6 | 0.00 | 0.00 | 0.00 | 71 | 1012.9 |
| 20260507043038 | 6 | 0 | 0.0 | 0.0 | 0.00 | 0.00 | 0.00 | 73 | 1013.0 |
| 20260507041542 | 6 | 0 | 0.0 | 0.0 | 0.00 | 0.00 | 0.00 | 69 | 1013.0 |
| 20260507040033 | 7 | 0 | 0.0 | 0.0 | 0.00 | 0.00 | 0.00 | 66 | 1012.9 |
| 20260507034542 | 7 | 0 | 0.0 | 0.0 | 0.00 | 0.00 | 0.00 | 65 | 1013.0 |
| 20260507033100 | 7 | 0 | 0.0 | 0.0 | 0.00 | 0.00 | 0.00 | 68 | 1013.1 |
| 20260507031537 | 7 | 0 | 0.0 | 1.6 | 0.00 | 0.00 | 0.00 | 65 | 1013.0 |
| 20260507030033 | 7 | 0 | 0.0 | 1.6 | 0.00 | 0.00 | 0.00 | 62 | 1013.2 |
| 20260507024533 | 7 | 0 | 0.0 | 0.0 | 0.00 | 0.00 | 0.00 | 60 | 1013.3 |
| 20260507023033 | 8 | 0 | 0.0 | 1.6 | 0.00 | 0.00 | 0.00 | 60 | 1013.3 |
| 20260507021531 | 8 | 0 | 0.0 | 3.2 | 0.00 | 0.00 | 0.00 | 59 | 1013.2 |
| 20260507020037 | 8 | 0 | 1.6 | 3.2 | 0.00 | 0.00 | 0.00 | 56 | 1013.1 |
| 20260507014535 | 8 | 237 | 0.0 | 1.6 | 0.00 | 0.00 | 0.00 | 58 | 1012.9 |
| 20260507013038 | 9 | 0 | 0.0 | 1.6 | 0.00 | 0.00 | 0.00 | 55 | 1012.9 |
| 20260507011541 | 9 | 0 | 0.0 | 6.4 | 0.00 | 0.00 | 0.00 | 56 | 1012.6 |
| 20260507010041 | 9 | 0 | 0.0 | 3.2 | 0.00 | 0.00 | 0.00 | 56 | 1012.9 |
| 20260507004531 | 9 | 0 | 1.6 | 4.8 | 0.00 | 0.00 | 0.00 | 60 | 1012.7 |
| 20260507003034 | 9 | 0 | 0.0 | 0.0 | 0.00 | 0.00 | 0.00 | 61 | 1012.6 |
| 20260507001551 | 10 | 0 | 0.0 | 1.6 | 0.00 | 0.00 | 0.00 | 58 | 1012.3 |
| 20260507000032 | 10 | 0 | 0.0 | 3.2 | 0.00 | 0.00 | 0.00 | 52 | 1012.5 |
| 20260506234546 | 10 | 271 | 0.0 | 1.6 | 0.00 | 0.00 | 0.00 | 50 | 1012.3 |
| 20260506233033 | 10 | 233 | 0.0 | 9.7 | 0.00 | 0.00 | 0.00 | 50 | 1012.2 |
| 20260506231537 | 10 | 326 | 1.6 | 6.4 | 0.00 | 0.00 | 0.00 | 50 | 1012.2 |
| 20260506230035 | 11 | 222 | 1.6 | 9.7 | 0.00 | 0.00 | 0.00 | 50 | 1012.2 |
| 20260506224537 | 11 | 269 | 1.6 | 8.0 | 0.00 | 0.00 | 0.00 | 51 | 1012.3 |
| 20260506223034 | 11 | 41 | 3.2 | 6.4 | 0.00 | 0.00 | 0.00 | 49 | 1012.3 |
| 20260506221534 | 11 | 10 | 4.8 | 9.7 | 0.00 | 0.00 | 0.00 | 49 | 1012.4 |
| 20260506220045 | 11 | 300 | 1.6 | 6.4 | 0.00 | 0.00 | 0.00 | 50 | 1012.3 |
| 20260506214535 | 11 | 295 | 4.8 | 11.3 | 0.00 | 0.00 | 0.00 | 48 | 1012.2 |
| 20260506213034 | 11 | 311 | 6.4 | 12.9 | 0.00 | 0.00 | 0.00 | 48 | 1012.2 |
| 20260506211534 | 11 | 318 | 6.4 | 14.5 | 0.00 | 0.00 | 0.00 | 49 | 1012.1 |
| 20260506210032 | 11 | 286 | 3.2 | 9.7 | 0.00 | 0.00 | 0.00 | 49 | 1012.2 |
| 20260506204536 | 11 | 323 | 4.8 | 16.1 | 0.00 | 0.00 | 0.00 | 49 | 1012.3 |
| 20260506203034 | 11 | 276 | 4.8 | 14.5 | 0.00 | 0.00 | 0.00 | 48 | 1012.3 |
| 20260506201534 | 11 | 308 | 4.8 | 12.9 | 0.00 | 0.00 | 0.00 | 49 | 1012.1 |
| 20260506200036 | 11 | 315 | 4.8 | 8.0 | 0.00 | 0.00 | 0.00 | 49 | 1012.7 |
| 20260506194537 | 10 | 285 | 6.4 | 14.5 | 0.00 | 0.00 | 0.00 | 50 | 1012.5 |
| 20260506193032 | 10 | 301 | 9.7 | 17.7 | 0.00 | 0.00 | 0.00 | 49 | 1012.5 |